Location: Kellogg
(38.0159°N, 90.0546°W)
Time: 18:28:23
(UTC+00:00)

S-56A Canister/Altair - Pass Details

Date: 22 September 2024
Orbit: 636 x 2487 km, 38.9° (Epoch: 04 October)

Event Time Altitude Azimuth Distance (km) Brightness Sun altitude
Rises 04:06:22 0° 282° (WNW) 3,721 11.6 -44.7°
Reaches altitude 10° 04:08:48 10° 275° (W) 2,971 10.8 -45.0°
Enters shadow 04:10:13 17° 268° (W) 2,597 10.4 -45.1°
Maximum altitude 04:15:37 40° 208° (SSW) 2,012 - -45.8°
Drops below altitude 10° 04:25:30 10° 145° (SE) 4,297 - -46.9°
Sets 04:29:49 0° 139° (SE) 5,567 - -47.3°
